Simultaneous Nadir Overpasses (SNOs) Predictions

Prediction of SNOs between LANDSAT-8 and METOP-A Satellite Orbit:

Table of predicted SNOs for the next 14.0 days since TLE Epoch: 12/14/2019
Index Date (LANDSAT-8) Time (LANDSAT-8) Lat,Lon (LANDSAT-8) SZA (LANDSAT-8 ) Date (METOP-A) Time (METOP-A) Lat,Lon (METOP-A) SZA (METOP-A ) Distance(km) Time Diff (sec)
1 12/16/2019 14:56:24 -81.48,-177.78 72.62 12/16/2019 14:56:17 -81.48,-177.60 72.60 2.97 7
2 12/16/2019 15:45:50 81.48, -10.05 107.40 12/16/2019 15:46:57 81.48, -9.96 107.44 1.42 67
3 12/19/2019 09:41:12 81.47, 80.98 107.43 12/19/2019 09:40:00 81.48, 81.14 107.43 2.81 72
4 12/19/2019 10:30:38 -81.49,-111.02 72.52 12/19/2019 10:30:40 -81.48,-111.16 72.54 2.57 2
5 12/22/2019 05:15:26 81.49, 147.68 107.46 12/22/2019 05:14:23 81.48, 147.52 107.42 2.66 63
6 12/22/2019 06:04:53 -81.49, -44.69 72.54 12/22/2019 06:05:03 -81.48, -44.75 72.55 1.17 10
7 12/25/2019 00:49:40 81.48,-146.04 107.37 12/25/2019 00:48:45 81.48,-146.12 107.34 1.39 55
8 12/25/2019 01:39:07 -81.48, 21.62 72.63 12/25/2019 01:39:25 -81.48, 21.65 72.62 0.44 18
9 12/27/2019 20:23:54 81.49, -79.39 107.27 12/27/2019 20:23:07 81.48, -79.37 107.25 0.84 47




NCC Satellite Simultaneous Nadir Overpasses (SNOs) Prediction Service
